User: anonymous   Login
Location: Cherry Springs State Park
(41.6616°N, 77.8240°W)
Time: 08:08:33
(UTC-04:00)
Language:

Cosmos 1437 - Orbit

View from above orbital plane
View from above orbital plane
View from above satellite
View from above satellite

Ground track
Ground track

The orbit data is extracted from the following two-line orbital elements,

1 13770U 83003A   16181.73627274  .00003313  00000-0  64958-4 0  9993
2 13770  81.1589 219.8685 0008584  67.5242 292.6911 15.46984206831953
Epoch (UTC): 29 June 2016 17:40:13
Eccentricity: 0.0008584
inclination: 81.1589°
perigee height: 420 km
apogee height: 431 km
right ascension of ascending node: 219.8685°
argument of perigee: 67.5242°
revolutions per day: 15.46984206
mean anomaly at epoch: 292.6911°
orbit number at epoch: 83195

The dashed part of the orbit path shows where the satellite is in the earth's shadow,  

DLR